Weather in Limoges

France     45˚49′38″N   1˚15′56″E
temp.,
°C
wind,
m/s
gust,
m/s
humid.,
%
clouds,
%
prec.,
mm/h
press.,
hPa
HPBL,
m
27 november, fri
fri2701:00+8˚sse279033 0.1 1018195
04:00+10˚se298372 0.0 1017444
07:00+9˚se239086 0.0 101686
10:00+11˚sse298463 0.0 1016463
13:00+15˚sse366840 0.0 1014750
16:00+14˚se127620 0.0 101349
19:00+9˚se129121 0.0 101322
22:00+8˚ese12930 0.0 101423
28 november, sat
sat2801:00+7˚e12930 0.0 101327
04:00+7˚e228845 0.0 101239
07:00+7˚ene228362 0.0 101228
10:00+10˚ene237760 0.0 1012120
13:00+15˚e136242 0.0 1011562
16:00+14˚n117028 0.0 101123
19:00+9˚ene128536 0.0 101327
22:00+8˚ene1272100 0.0 101425
29 november, sun
sun2901:00+7˚ne127395 0.0 101522
04:00+5˚ne117628 0.0 101622
07:00+4˚ne127214 0.0 101622
10:00+7˚ne12650 0.0 101894
13:00+12˚ne36530 0.0 1018451
16:00+11˚nne37610 0.0 1018376
19:00+4˚ne27810 0.0 1019216
22:00+3˚ne298252 0.0 1021229
30 november, mon
mon3001:00+2˚nne238562 0.0 102269
04:00+1˚nne22860 0.0 102341
07:00nne22850 0.0 102448
10:00+3˚ne37670 0.0 1025251
13:00+9˚nne38460 0.0 1025477
16:00+8˚nne38550 0.0 1025436
19:00+2˚ne39770 0.0 1027258
22:00+1˚ne38730 0.0 1028199
1 december, tue
tue101:00+1˚ne24680 0.0 1029105
04:00+1˚ne24640 0.0 102997
07:00+1˚ne235822 0.0 102941
10:00+4˚ne28502 0.0 1029219
13:00+11˚ne374721 0.0 1028473
16:00+9˚nne266180 0.0 1026288
19:00+3˚nne228090 0.0 102742
22:00+2˚ne2580100 0.0 1027139